Regional Weather Roundup
Issued by NWS

Home | Current Version | Previous Version | Graphics & Text | Print | Product List | Glossary On
Versions: 1 2 3 4 5 6 7 8 9 10 11 12 13 14 15 16 17 18 19 20 21 22 23 24 25 26 27 28 29 30 31 32 33 34 35 36 37 38 39 40 41 42 43 44 45 46 47 48 49 50
000
ASUS43 KOAX 170602
RWRNE

WEATHER ROUNDUP FOR NEBRASKA
NATIONAL WEATHER SERVICE OMAHA NE
100 AM CDT THU AUG 17 2017

NOTES: SATELLITE DATA IS BEING USED TO AUGMENT CLOUD COVER ABOVE
       12000 FEET.
       "FAIR" INDICATES FEW OR NO CLOUDS BELOW 12,000 FEET WITH NO
       SIGNIFICANT WEATHER AND/OR OBSTRUCTIONS TO VISIBILITY.


NEZ001>004-019>022-054>056-170700-
NEBRASKA PANHANDLE

CITY           SKY/WX    TMP DP  RH WIND       PRES   REMARKS
SCOTTSBLUFF    CLEAR     58  51  78 E5        30.07F
6HR MIN TEMP:  57; 6HR MAX TEMP:  78;

ALLIANCE       CLEAR     50  48  93 W5        30.07R
6HR MIN TEMP:  50; 6HR MAX TEMP:  73;

CHADRON        CLEAR     57  50  77 SW3       30.03R
6HR MIN TEMP:  56; 6HR MAX TEMP:  78;

GORDON         FAIR      52  50  93 CALM      30.04S
6HR MIN TEMP:  51; 6HR MAX TEMP:  74;

KIMBALL        CLEAR     55  50  85 SW7       30.13F
SIDNEY         CLEAR     51  48  89 SW6       30.11F
6HR MIN TEMP:  51; 6HR MAX TEMP:  74;

$$

NEZ057>060-069>072-079>082-170700-
SOUTHWEST NEBRASKA

CITY           SKY/WX    TMP DP  RH WIND       PRES   REMARKS
NORTH PLATTE   CLEAR     56  54  93 NW3       30.01F
6HR MIN TEMP:  54; 6HR MAX TEMP:  72;

IMPERIAL       CLEAR     59  54  83 W5        30.06R
6HR MIN TEMP:  57; 6HR MAX TEMP:  76;

LEXINGTON      CLEAR     58  56  92 NW6       29.99S
MCCOOK         CLEAR     58  58 100 SW8       30.03R
6HR MIN TEMP:  58; 6HR MAX TEMP:  75;

OGALLALA       CLEAR     54  53  95 W5        30.05S
$$

NEZ005>010-023>029-035>040-094-170700-
NORTH CENTRAL NEBRASKA

CITY           SKY/WX    TMP DP  RH WIND       PRES   REMARKS
VALENTINE      CLEAR     56  47  71 NW3       29.99R
6HR MIN TEMP:  54; 6HR MAX TEMP:  75;

AINSWORTH      CLEAR     54  53  96 W7        29.98S
BROKEN BOW     CLEAR     60  55  83 N3        29.98R
6HR MIN TEMP:  60; 6HR MAX TEMP:  69;

O`NEILL        CLEAR     61  60  94 NW12      29.92R
ORD            CLEAR     57  54  89 NW6       29.94R
6HR MIN TEMP:  57; 6HR MAX TEMP:  68; 6HR PCP: TRACE;

THEDFORD       CLEAR     55  53  92 W3        30.03R
$$

NEZ041-046>049-061>064-073>077-083>087-170700-
SOUTH CENTRAL NEBRASKA

CITY           SKY/WX    TMP DP  RH WIND       PRES   REMARKS
GRAND ISLAND   CLEAR     61  61 100 W8        29.95R
6HR MIN TEMP:  61; 6HR MAX TEMP:  71;

AURORA         CLEAR     61  61 100 W6        29.94R
HASTINGS       CLEAR     61  59  93 W6        29.97S
6HR MIN TEMP:  60; 6HR MAX TEMP:  71;

HEBRON         CLEAR     65  63  94 W3        29.94R
HOLDREGE       CLEAR     59  56  90 W5        29.98S
KEARNEY        CLEAR     62  58  86 W6        29.97S
YORK           CLEAR     61  61 100 W7        29.92R
$$

NEZ011>018-030>034-042>045-170700-
NORTHEAST NEBRASKA

CITY           SKY/WX    TMP DP  RH WIND       PRES   REMARKS
NORFOLK        CLOUDY    65  60  84 W10       29.86S
6HR MIN TEMP:  63; 6HR MAX TEMP:  66; 6HR PCP:  0.03;

ALBION         CLEAR     64  60  88 NW9       29.91R
BLAIR          RAIN      65  62  89 W9G16     29.83S
COLUMBUS       PTCLDY    63  60  90 W8        29.89R
FREMONT        CLEAR     66  61  84 W14G21    29.85S
TEKAMAH        CLOUDY    65  61  87 W6        29.81S
6HR MIN TEMP:  65; 6HR MAX TEMP:  75;

WAYNE          CLOUDY    65  63  91 W9        29.82S
$$

NEZ050>053-065>068-078-088>093-170700-
SOUTHEAST NEBRASKA

CITY           SKY/WX    TMP DP  RH WIND       PRES   REMARKS
LINCOLN        CLEAR     66  61  84 W8        29.88S
6HR MIN TEMP:  66; 6HR MAX TEMP:  79;

OMAHA EPPLEY   PTCLDY    68  60  75 W13G21    29.82S
6HR MIN TEMP:  68; 6HR MAX TEMP:  78; 6HR PCP: TRACE;

BEATRICE       CLEAR     65  63  95 NW6       29.89F
FALLS CITY     CLOUDY    69  64  84 W6        29.85R
6HR MIN TEMP:  69; 6HR MAX TEMP:  82;

NEBRASKA CITY  CLEAR     66  65  96 W10       29.85F
PLATTSMOUTH    CLEAR     65  61  87 SW6       29.85S
$$

NEZ044-045-051>053-067-170700-
OMAHA AREA

CITY           SKY/WX    TMP DP  RH WIND       PRES   REMARKS
OMAHA EPPLEY   PTCLDY    68  60  75 W13G21    29.82S
6HR MIN TEMP:  68; 6HR MAX TEMP:  78; 6HR PCP: TRACE;

BLAIR          RAIN      65  62  89 W9G16     29.83S
FREMONT        CLEAR     66  61  84 W14G21    29.85S
MILLARD        CLEAR     67  62  84 NW12      29.83F
OFFUTT AFB     CLEAR     67  60  79 W9        29.82F
PLATTSMOUTH    CLEAR     65  61  87 SW6       29.85S
WAHOO          FAIR      65  62  91 W10       29.85S
$$




USA.gov is the U.S. government's official web portal to all federal, state and local government web resources and services.